Location: Dehesa de la Cepeda
(40.6574°N, 4.3013°W)
Time: 02:56:09
(UTC+00:00)

Courier 1B - Pass Details

Date: 05 August 2021
Orbit: 963 x 1209 km, 28.3° (Epoch: 17 September)

Event Time Altitude Azimuth Distance (km) Brightness Sun altitude
Rises 18:48:34 0° 245° (WSW) 4,078 11.6 6.2°
Reaches altitude 10° 18:51:42 10° 236° (SW) 3,130 10.8 5.6°
Maximum altitude 18:58:28 32° 176° (S) 1,924 8.9 4.4°
Drops below altitude 10° 19:05:11 10° 116° (ESE) 3,118 9.5 3.2°
Sets 19:08:19 0° 107° (ESE) 4,060 10.0 2.6°
